AAL3028 KPHX-KASE

Flight info

Callsign AAL3028
Flight time N/A
Altitude 37000
Route MRBIL1 YOOPR DCT SLIPY LOYYD1
Aircraft A319/M-SDE3FGHIRWY/LB1

Departure

Time N/A
Airport Phoenix Sky Harbor International Airport (KPHX)

Arrival

Time 2026-04-27 08:24
Airport Aspen-Pitkin County Airport (Sardy Field) (KASE)
Time Latitude Longitude Altitude Speed Heading
2026-04-27 08:10 39.15872 -107.19801 18345 ft 348 kts 91°
2026-04-27 08:10 39.15828 -107.16668 18115 ft 349 kts 91°
2026-04-27 08:10 39.15783 -107.13539 17851 ft 348 kts 91°
2026-04-27 08:11 39.15735 -107.10425 17587 ft 347 kts 91°
2026-04-27 08:11 39.15688 -107.07318 17325 ft 346 kts 91°
2026-04-27 08:11 39.15641 -107.04262 17060 ft 344 kts 91°
2026-04-27 08:11 39.15594 -107.01183 16926 ft 341 kts 91°
2026-04-27 08:12 39.15545 -106.98114 17035 ft 344 kts 90°
2026-04-27 08:12 39.15497 -106.95030 17045 ft 340 kts 91°
2026-04-27 08:12 39.15457 -106.92042 17053 ft 328 kts 89°
2026-04-27 08:12 39.15764 -106.89172 17049 ft 320 kts 73°
2026-04-27 08:13 39.16580 -106.86516 16936 ft 319 kts 58°
2026-04-27 08:13 39.17844 -106.84216 16715 ft 312 kts 45°
2026-04-27 08:13 39.19245 -106.82124 16524 ft 311 kts 46°
2026-04-27 08:13 39.20651 -106.80001 16331 ft 310 kts 46°
2026-04-27 08:14 39.22043 -106.77885 16139 ft 310 kts 46°
2026-04-27 08:14 39.23437 -106.75763 15951 ft 309 kts 47°
2026-04-27 08:14 39.24824 -106.73646 15748 ft 308 kts 46°
2026-04-27 08:14 39.26207 -106.71536 15554 ft 307 kts 46°
2026-04-27 08:15 39.27589 -106.69433 15358 ft 307 kts 45°
2026-04-27 08:15 39.29197 -106.67699 15159 ft 297 kts 24°
2026-04-27 08:15 39.31088 -106.66845 15003 ft 283 kts
2026-04-27 08:15 39.33017 -106.66850 14720 ft 273 kts 344°
2026-04-27 08:16 39.34797 -106.67582 14476 ft 267 kts 334°
2026-04-27 08:16 39.36526 -106.68456 14229 ft 266 kts 334°
2026-04-27 08:16 39.38245 -106.69325 14050 ft 262 kts 333°
2026-04-27 08:16 39.39911 -106.70176 13994 ft 252 kts 333°
2026-04-27 08:17 39.41499 -106.70993 14006 ft 244 kts 333°
2026-04-27 08:17 39.43050 -106.71779 14004 ft 235 kts 333°
2026-04-27 08:17 39.44564 -106.72542 13999 ft 232 kts 333°
2026-04-27 08:17 39.46069 -106.73295 14011 ft 232 kts 333°
2026-04-27 08:18 39.47572 -106.74046 14013 ft 231 kts 333°
2026-04-27 08:18 39.49008 -106.74930 14017 ft 225 kts 318°
2026-04-27 08:18 39.50012 -106.76424 14027 ft 219 kts 294°
2026-04-27 08:18 39.50386 -106.78301 14035 ft 216 kts 270°
2026-04-27 08:19 39.50080 -106.80170 14029 ft 218 kts 246°
2026-04-27 08:19 39.49174 -106.81764 14035 ft 222 kts 232°
2026-04-27 08:19 39.48154 -106.83262 14027 ft 222 kts 232°
2026-04-27 08:19 39.47132 -106.84762 14026 ft 222 kts 232°
2026-04-27 08:20 39.46076 -106.86226 14031 ft 222 kts 223°
2026-04-27 08:20 39.44723 -106.87080 14013 ft 215 kts 199°
2026-04-27 08:20 39.43310 -106.87453 14014 ft 200 kts 198°
2026-04-27 08:20 39.41950 -106.87815 13833 ft 200 kts 198°
2026-04-27 08:21 39.40581 -106.88188 13541 ft 204 kts 198°
2026-04-27 08:21 39.39181 -106.88569 13241 ft 206 kts 197°
2026-04-27 08:21 39.37765 -106.88809 12966 ft 207 kts 185°
2026-04-27 08:21 39.36328 -106.88668 12684 ft 204 kts 180°
2026-04-27 08:22 39.34942 -106.88518 12413 ft 196 kts 180°
2026-04-27 08:22 39.33639 -106.88380 12167 ft 181 kts 180°
2026-04-27 08:22 39.32386 -106.88250 11688 ft 180 kts 179°
2026-04-27 08:22 39.31153 -106.88125 11219 ft 179 kts 179°
2026-04-27 08:23 39.29909 -106.87999 10714 ft 180 kts 179°
2026-04-27 08:23 39.28630 -106.87902 9971 ft 187 kts 178°
2026-04-27 08:23 39.27321 -106.87848 9275 ft 190 kts 179°
2026-04-27 08:23 39.25990 -106.87877 8640 ft 191 kts 182°
2026-04-27 08:24 39.24694 -106.87838 8031 ft 181 kts 173°
2026-04-27 08:24 39.23529 -106.87460 7743 ft 163 kts 161°
2026-04-27 08:24 39.22553 -106.86999 7740 ft 129 kts 160°
2026-04-27 08:24 39.21999 -106.86734 7777 ft 41 kts 159°
2026-04-27 08:25 39.21934 -106.86702 7785 ft 2 kts 155°
2026-04-27 08:25 39.21942 -106.86706 7785 ft 4 kts 155°
2026-04-27 08:25 39.21911 -106.86681 7780 ft 3 kts 139°
2026-04-27 08:25 39.21902 -106.86668 7778 ft 2 kts 131°
2026-04-27 08:26 39.21889 -106.86643 7795 ft 5 kts 121°
2026-04-27 08:26 39.21877 -106.86607 7798 ft 3 kts 99°
2026-04-27 08:26 39.21878 -106.86601 7798 ft 0 kts 86°
2026-04-27 08:27 39.21887 -106.86579 7797 ft 8 kts 40°
2026-04-27 08:27 39.21941 -106.86586 7787 ft 5 kts 339°
2026-04-27 08:28 39.21981 -106.86588 7781 ft 5 kts 50°
2026-04-27 08:28 39.21978 -106.86562 7786 ft 2 kts 98°
2026-04-27 08:28 39.21975 -106.86542 7786 ft 2 kts 101°
2026-04-27 08:28 39.21973 -106.86524 7789 ft 2 kts 102°
2026-04-27 08:29 39.21972 -106.86524 7789 ft 0 kts 102°